Retour au catalogue

STARLINK-5522

ActifCommunicationsVLEO
NORAD 56498·PAYLOAD·🇺🇸 United States

Lancé May 10, 2023 depuis Vandenberg Space Force Base

Loading…

Prochains Passages (prochaines 24 heures)

TLE

FraisSource: CelesTrak SupGP

Époque: Sep 15, 2026, 02:02 UTC

1 56498C 23064BC  26258.08520833  .00067433  00000+0  56514-2 0  2582
2 56498  70.0017 346.8731 0003381 265.9956  85.3071 14.98294484    16

Suivez STARLINK-5522 en temps réel avec AllMySat

Download on the App Store